67.1°F
Current conditions from King Hill
Updated every 5 minutes
 
  Thursday July 24, 2014

Station Historical Data
Daily Summary for June 19, 2012 Units:  Metric    English   Both
« Previous Day
Next Day »
Daily Weekly Monthly Yearly Custom
  High: Low: Average:
Temperature: 25.3 °C 15.6 °C 20.5 °C
Dew Point: 19.6 °C 12.3 °C 15.9 °C
Humidity: 84% 67% 75%
Wind Speed: 14.5km/h 1.6km/h 6.8km/h
Wind Gust: 37km/h - -
Wind- - SSW
Pressure: 1016.1 hPa 1012.4 hPa -
Precipitation: 0 mm    
Historical Graphs
 
 
Tabular Data for June 19, 2012
Time Temperature Dew Point Pressure Wind Wind Speed Wind Gust Humidity Daily Rainfall
00:04 17.1 °C 13 °C 1015.5 hPa SSW 1.6 km/h 14.5 km/h 77% 0 mm
00:09 17.1 °C 13.2 °C 1015.5 hPa SW 3.2 km/h 11.3 km/h 78% 0 mm
00:14 17.1 °C 13 °C 1015.5 hPa SSW 6.4 km/h 14.5 km/h 77% 0 mm
00:19 17.1 °C 13.1 °C 1015.8 hPa SSW 6.4 km/h 16.1 km/h 77% 0 mm
00:24 17.3 °C 13.2 °C 1015.8 hPa SSW 9.7 km/h 20.9 km/h 77% 0 mm
00:29 17.4 °C 13.2 °C 1015.8 hPa SSW 9.7 km/h 20.9 km/h 76% 0 mm
00:34 17.4 °C 13.2 °C 1015.8 hPa SSW 6.4 km/h 20.9 km/h 76% 0 mm
00:39 17.4 °C 13.2 °C 1015.8 hPa SW 11.3 km/h 29 km/h 76% 0 mm
00:44 17.5 °C 13 °C 1015.8 hPa SSW 9.7 km/h 29 km/h 75% 0 mm
00:49 17.5 °C 13 °C 1015.8 hPa SSW 11.3 km/h 24.1 km/h 75% 0 mm
00:54 17.5 °C 13 °C 1016.1 hPa SW 11.3 km/h 24.1 km/h 75% 0 mm
00:59 17.6 °C 13.1 °C 1016.1 hPa SSW 9.7 km/h 25.7 km/h 75% 0 mm
01:04 17.6 °C 13.1 °C 1015.8 hPa SSW 8 km/h 25.7 km/h 75% 0 mm
01:09 17.5 °C 13 °C 1015.8 hPa SSW 11.3 km/h 25.7 km/h 75% 0 mm
01:14 17.6 °C 13.1 °C 1015.8 hPa SSW 8 km/h 25.7 km/h 75% 0 mm
01:19 17.4 °C 12.9 °C 1015.8 hPa SSW 11.3 km/h 25.7 km/h 75% 0 mm
01:24 17.4 °C 12.9 °C 1015.8 hPa SSW 6.4 km/h 24.1 km/h 75% 0 mm
01:29 17.3 °C 13.1 °C 1015.8 hPa SSW 8 km/h 25.7 km/h 76% 0 mm
01:34 17.3 °C 13 °C 1015.8 hPa SSW 4.8 km/h 25.7 km/h 76% 0 mm
01:39 17.2 °C 12.9 °C 1015.8 hPa SSW 9.7 km/h 25.7 km/h 76% 0 mm
01:44 17.1 °C 12.8 °C 1015.8 hPa SSW 6.4 km/h 25.7 km/h 76% 0 mm
01:49 17.1 °C 12.8 °C 1015.8 hPa SSW 4.8 km/h 20.9 km/h 76% 0 mm
01:54 17.1 °C 12.8 °C 1015.5 hPa SSW 6.4 km/h 29 km/h 76% 0 mm
01:59 17.1 °C 12.8 °C 1015.5 hPa SSW 6.4 km/h 29 km/h 76% 0 mm
02:04 17 °C 12.7 °C 1015.5 hPa SW 8 km/h 19.3 km/h 76% 0 mm
02:09 17 °C 12.7 °C 1015.5 hPa SW 11.3 km/h 19.3 km/h 76% 0 mm
02:14 16.9 °C 12.7 °C 1015.5 hPa SW 3.2 km/h 20.9 km/h 76% 0 mm
02:19 16.9 °C 12.6 °C 1015.8 hPa SW 9.7 km/h 22.5 km/h 76% 0 mm
02:24 16.9 °C 12.7 °C 1015.8 hPa SSW 6.4 km/h 22.5 km/h 76% 0 mm
02:29 17 °C 12.6 °C 1015.5 hPa SW 8 km/h 22.5 km/h 75% 0 mm
02:34 17 °C 12.6 °C 1015.5 hPa South 4.8 km/h 24.1 km/h 75% 0 mm
02:39 17 °C 12.6 °C 1015.5 hPa SW 4.8 km/h 24.1 km/h 75% 0 mm
02:44 16.9 °C 12.5 °C 1015.5 hPa SW 4.8 km/h 20.9 km/h 75% 0 mm
02:49 16.9 °C 12.5 °C 1015.5 hPa SSW 4.8 km/h 16.1 km/h 75% 0 mm
02:54 16.9 °C 12.5 °C 1015.5 hPa South 4.8 km/h 27.4 km/h 75% 0 mm
02:59 16.9 °C 12.6 °C 1015.5 hPa SSW 4.8 km/h 27.4 km/h 76% 0 mm
03:04 16.9 °C 12.6 °C 1015.5 hPa SSW 9.7 km/h 24.1 km/h 76% 0 mm
03:09 16.9 °C 12.6 °C 1015.5 hPa SSW 6.4 km/h 20.9 km/h 76% 0 mm
03:14 16.9 °C 12.7 °C 1015.5 hPa SSW 6.4 km/h 27.4 km/h 76% 0 mm
03:19 16.8 °C 12.6 °C 1015.1 hPa SSE 3.2 km/h 27.4 km/h 76% 0 mm
03:24 16.7 °C 12.5 °C 1015.1 hPa SSW 9.7 km/h 19.3 km/h 76% 0 mm
03:29 16.7 °C 12.5 °C 1015.1 hPa SSW 4.8 km/h 24.1 km/h 76% 0 mm
03:34 16.7 °C 12.6 °C 1015.1 hPa SSW 6.4 km/h 24.1 km/h 77% 0 mm
03:39 16.6 °C 12.6 °C 1015.1 hPa SSW 4.8 km/h 17.7 km/h 77% 0 mm
03:44 16.6 °C 12.5 °C 1015.1 hPa SSW 8 km/h 20.9 km/h 77% 0 mm
03:49 16.5 °C 12.4 °C 1015.1 hPa SSW 8 km/h 22.5 km/h 77% 0 mm
03:54 16.4 °C 12.6 °C 1015.1 hPa SSW 11.3 km/h 32.2 km/h 78% 0 mm
03:59 16.4 °C 12.6 °C 1015.1 hPa SSW 6.4 km/h 32.2 km/h 78% 0 mm
04:04 16.3 °C 12.5 °C 1015.1 hPa SSW 4.8 km/h 17.7 km/h 78% 0 mm
04:09 16.3 °C 12.4 °C 1015.1 hPa SSW 4.8 km/h 14.5 km/h 78% 0 mm
04:14 16.3 °C 12.4 °C 1015.1 hPa SSW 6.4 km/h 19.3 km/h 78% 0 mm
04:19 16.2 °C 12.4 °C 1014.8 hPa SSW 4.8 km/h 19.3 km/h 78% 0 mm
04:24 16.2 °C 12.5 °C 1014.8 hPa SW 4.8 km/h 17.7 km/h 79% 0 mm
04:29 16.1 °C 12.4 °C 1014.8 hPa SSW 4.8 km/h 20.9 km/h 79% 0 mm
04:34 16.1 °C 12.4 °C 1014.8 hPa SSW 8 km/h 20.9 km/h 79% 0 mm
04:39 16.1 °C 12.4 °C 1014.8 hPa SSW 4.8 km/h 20.9 km/h 79% 0 mm
04:44 16 °C 12.4 °C 1014.8 hPa SSW 6.4 km/h 20.9 km/h 79% 0 mm
04:49 16 °C 12.4 °C 1014.8 hPa SSW 4.8 km/h 19.3 km/h 79% 0 mm
04:54 15.9 °C 12.3 °C 1015.1 hPa SSW 3.2 km/h 17.7 km/h 79% 0 mm
04:59 15.9 °C 12.4 °C 1015.1 hPa South 1.6 km/h 14.5 km/h 80% 0 mm
05:04 15.8 °C 12.4 °C 1015.1 hPa SSW 1.6 km/h 14.5 km/h 80% 0 mm
05:09 15.8 °C 12.3 °C 1015.1 hPa SSW 4.8 km/h 12.9 km/h 80% 0 mm
05:14 15.7 °C 12.3 °C 1015.1 hPa SW 3.2 km/h 12.9 km/h 80% 0 mm
05:19 15.7 °C 12.4 °C 1015.1 hPa SSW 6.4 km/h 12.9 km/h 81% 0 mm
05:24 15.7 °C 12.4 °C 1015.1 hPa SSW 3.2 km/h 12.9 km/h 81% 0 mm
05:29 15.6 °C 12.4 °C 1015.1 hPa SSW 3.2 km/h 11.3 km/h 81% 0 mm
05:34 15.7 °C 12.4 °C 1015.5 hPa SSW 4.8 km/h 11.3 km/h 81% 0 mm
05:39 15.8 °C 12.5 °C 1015.5 hPa SW 3.2 km/h 20.9 km/h 81% 0 mm
05:44 15.8 °C 12.6 °C 1015.5 hPa SSW 3.2 km/h 20.9 km/h 81% 0 mm
05:49 15.9 °C 12.6 °C 1015.5 hPa SSW 4.8 km/h 16.1 km/h 81% 0 mm
05:54 15.9 °C 12.7 °C 1015.5 hPa SSW 8 km/h 14.5 km/h 81% 0 mm
05:59 16 °C 12.7 °C 1015.5 hPa SW 4.8 km/h 17.7 km/h 81% 0 mm
06:04 16.1 °C 12.6 °C 1015.5 hPa SSW 9.7 km/h 24.1 km/h 80% 0 mm
06:09 16.1 °C 12.7 °C 1015.5 hPa SSW 6.4 km/h 24.1 km/h 80% 0 mm
06:14 16.2 °C 12.7 °C 1015.5 hPa SW 9.7 km/h 25.7 km/h 80% 0 mm
06:19 16.3 °C 12.8 °C 1015.5 hPa SSW 6.4 km/h 25.7 km/h 80% 0 mm
06:24 16.3 °C 12.9 °C 1015.5 hPa SW 6.4 km/h 22.5 km/h 80% 0 mm
06:29 16.5 °C 12.8 °C 1015.5 hPa SW 9.7 km/h 22.5 km/h 79% 0 mm
06:34 16.6 °C 12.9 °C 1015.8 hPa SW 4.8 km/h 19.3 km/h 79% 0 mm
06:39 16.8 °C 13.1 °C 1015.8 hPa SW 6.4 km/h 20.9 km/h 79% 0 mm
06:44 16.9 °C 13.2 °C 1015.5 hPa SSW 6.4 km/h 20.9 km/h 79% 0 mm
06:49 17 °C 13.3 °C 1015.8 hPa SW 6.4 km/h 19.3 km/h 79% 0 mm
06:54 17.1 °C 13.4 °C 1015.8 hPa SW 4.8 km/h 19.3 km/h 79% 0 mm
06:59 17.1 °C 13.4 °C 1015.8 hPa SW 8 km/h 19.3 km/h 79% 0 mm
07:04 17.2 °C 13.3 °C 1015.8 hPa WSW 6.4 km/h 19.3 km/h 78% 0 mm
07:09 17.3 °C 13.4 °C 1016.1 hPa SW 8 km/h 19.3 km/h 78% 0 mm
07:15 17.3 °C 13.4 °C 1016.1 hPa SW 8 km/h 19.3 km/h 78% 0 mm
07:24 17.3 °C 13.4 °C 1016.1 hPa SSW 8 km/h 24.1 km/h 78% 0 mm
07:29 17.3 °C 13.6 °C 1015.8 hPa SSW 1.6 km/h 20.9 km/h 79% 0 mm
07:34 17.3 °C 13.4 °C 1015.8 hPa SSW 6.4 km/h 22.5 km/h 78% 0 mm
07:39 17.4 °C 13.7 °C 1015.8 hPa SW 6.4 km/h 22.5 km/h 79% 0 mm
07:44 17.6 °C 13.9 °C 1015.8 hPa SW 4.8 km/h 19.3 km/h 79% 0 mm
07:49 17.8 °C 13.9 °C 1015.8 hPa SSW 4.8 km/h 19.3 km/h 78% 0 mm
07:54 17.9 °C 14 °C 1015.8 hPa SSW 11.3 km/h 17.7 km/h 78% 0 mm
07:59 18.2 °C 14.3 °C 1015.8 hPa SW 6.4 km/h 17.7 km/h 78% 0 mm
08:04 18.6 °C 14.2 °C 1015.8 hPa SSW 8 km/h 19.3 km/h 76% 0 mm
08:10 18.9 °C 14.6 °C 1015.8 hPa SW 8 km/h 22.5 km/h 76% 0 mm
08:19 19.8 °C 15.4 °C 1015.8 hPa WSW 1.6 km/h 20.9 km/h 76% 0 mm
08:24 20 °C 15 °C 1015.8 hPa SSW 9.7 km/h 37 km/h 73% 0 mm
08:29 19.9 °C 14.8 °C 1015.8 hPa SW 9.7 km/h 37 km/h 72% 0 mm
08:34 19.7 °C 14.5 °C 1015.8 hPa SW 12.9 km/h 27.4 km/h 72% 0 mm
08:39 19.6 °C 14.7 °C 1015.5 hPa SSW 8 km/h 27.4 km/h 73% 0 mm
08:44 19.7 °C 14.8 °C 1015.5 hPa SSW 8 km/h 27.4 km/h 73% 0 mm
08:49 19.8 °C 14.8 °C 1015.1 hPa SSW 6.4 km/h 20.9 km/h 73% 0 mm
08:54 19.8 °C 14.8 °C 1015.1 hPa SSW 9.7 km/h 27.4 km/h 73% 0 mm
08:59 20.1 °C 15.3 °C 1015.1 hPa SSW 8 km/h 27.4 km/h 74% 0 mm
09:04 20.3 °C 15.1 °C 1015.1 hPa SSW 8 km/h 25.7 km/h 72% 0 mm
09:09 20.4 °C 15.2 °C 1015.1 hPa South 9.7 km/h 25.7 km/h 72% 0 mm
09:14 20.5 °C 15.1 °C 1015.1 hPa SW 8 km/h 33.8 km/h 71% 0 mm
09:19 20.8 °C 15.6 °C 1014.8 hPa SSW 11.3 km/h 33.8 km/h 72% 0 mm
09:24 21 °C 15.6 °C 1014.8 hPa SSW 8 km/h 29 km/h 71% 0 mm
09:29 21 °C 15.3 °C 1014.4 hPa SSW 8 km/h 30.6 km/h 70% 0 mm
09:34 21 °C 15.3 °C 1014.4 hPa SSW 9.7 km/h 30.6 km/h 70% 0 mm
09:39 21.3 °C 15.9 °C 1014.4 hPa SSW 11.3 km/h 24.1 km/h 71% 0 mm
09:44 21.4 °C 16.2 °C 1014.4 hPa SW 6.4 km/h 22.5 km/h 72% 0 mm
09:49 21.4 °C 15.7 °C 1014.4 hPa SSW 6.4 km/h 22.5 km/h 70% 0 mm
09:55 21.4 °C 15.8 °C 1014.4 hPa SSW 9.7 km/h 22.5 km/h 70% 0 mm
10:00 21.6 °C 16.5 °C 1014.8 hPa SSW 6.4 km/h 22.5 km/h 73% 0 mm
10:09 21.9 °C 15.9 °C 1014.8 hPa SW 9.7 km/h 20.9 km/h 69% 0 mm
10:14 21.6 °C 15.9 °C 1014.8 hPa SW 9.7 km/h 22.5 km/h 70% 0 mm
10:19 21.3 °C 15.4 °C 1014.8 hPa SW 9.7 km/h 24.1 km/h 69% 0 mm
10:25 21 °C 15.6 °C 1014.8 hPa SSW 6.4 km/h 24.1 km/h 71% 0 mm
10:34 21.3 °C 16.3 °C 1014.4 hPa SW 11.3 km/h 22.5 km/h 73% 0 mm
10:39 21.7 °C 15.7 °C 1014.4 hPa SSW 8 km/h 22.5 km/h 69% 0 mm
10:44 21.8 °C 16.1 °C 1014.4 hPa SSW 8 km/h 24.1 km/h 70% 0 mm
10:49 21.7 °C 16.2 °C 1014.4 hPa SW 9.7 km/h 27.4 km/h 71% 0 mm
10:54 21.2 °C 15.5 °C 1014.4 hPa SW 8 km/h 30.6 km/h 70% 0 mm
10:59 21.2 °C 15.9 °C 1014.4 hPa SW 6.4 km/h 30.6 km/h 72% 0 mm
11:04 21.1 °C 15.9 °C 1014.4 hPa South 6.4 km/h 16.1 km/h 72% 0 mm
11:09 20.9 °C 15.7 °C 1014.1 hPa South 8 km/h 22.5 km/h 72% 0 mm
11:14 20.9 °C 15.9 °C 1014.1 hPa SW 11.3 km/h 29 km/h 73% 0 mm
11:19 21.3 °C 16.1 °C 1014.1 hPa SW 11.3 km/h 29 km/h 72% 0 mm
11:24 21.7 °C 16 °C 1014.1 hPa SSW 14.5 km/h 32.2 km/h 70% 0 mm
11:29 22 °C 16.5 °C 1014.1 hPa SSW 11.3 km/h 32.2 km/h 71% 0 mm
11:34 22.1 °C 16.3 °C 1013.8 hPa SW 14.5 km/h 29 km/h 70% 0 mm
11:39 22.2 °C 16.2 °C 1013.8 hPa SW 11.3 km/h 30.6 km/h 69% 0 mm
11:44 22.4 °C 17.2 °C 1014.1 hPa SSW 8 km/h 30.6 km/h 72% 0 mm
11:49 22.8 °C 16.8 °C 1013.8 hPa SSW 9.7 km/h 27.4 km/h 69% 0 mm
11:54 22.9 °C 16.5 °C 1013.8 hPa SSW 9.7 km/h 22.5 km/h 67% 0 mm
11:59 22.9 °C 16.5 °C 1013.8 hPa SSW 12.9 km/h 22.5 km/h 67% 0 mm
12:04 22.9 °C 16.9 °C 1013.8 hPa SW 4.8 km/h 29 km/h 69% 0 mm
12:09 23.2 °C 17.6 °C 1013.8 hPa SW 4.8 km/h 29 km/h 71% 0 mm
12:15 23.4 °C 17.2 °C 1013.8 hPa SSW 11.3 km/h 24.1 km/h 68% 0 mm
12:24 23.1 °C 16.9 °C 1014.1 hPa SSW 14.5 km/h 29 km/h 68% 0 mm
12:30 22.9 °C 16.9 °C 1014.1 hPa SW 11.3 km/h 29 km/h 69% 0 mm
12:39 22.9 °C 17.1 °C 1014.1 hPa SSW 8 km/h 19.3 km/h 70% 0 mm
12:44 23.1 °C 17.3 °C 1014.4 hPa SW 11.3 km/h 19.3 km/h 70% 0 mm
12:50 23.1 °C 16.8 °C 1014.4 hPa SW 12.9 km/h 25.7 km/h 68% 0 mm
12:59 23.1 °C 17.3 °C 1014.4 hPa SSW 11.3 km/h 22.5 km/h 70% 0 mm
13:05 23.1 °C 17.5 °C 1014.1 hPa SW 6.4 km/h 22.5 km/h 71% 0 mm
13:14 23.4 °C 17.4 °C 1014.1 hPa SW 8 km/h 24.1 km/h 69% 0 mm
13:19 23.6 °C 17.8 °C 1014.4 hPa SW 8 km/h 24.1 km/h 70% 0 mm
13:24 23.5 °C 17.7 °C 1014.4 hPa SW 9.7 km/h 22.5 km/h 70% 0 mm
13:29 23.7 °C 17.9 °C 1014.4 hPa SW 9.7 km/h 22.5 km/h 70% 0 mm
13:34 23.8 °C 17.3 °C 1014.4 hPa SSW 9.7 km/h 20.9 km/h 67% 0 mm
13:39 23.8 °C 17.3 °C 1014.4 hPa SSW 8 km/h 20.9 km/h 67% 0 mm
13:44 23.8 °C 17.5 °C 1014.4 hPa SW 9.7 km/h 19.3 km/h 68% 0 mm
13:49 23.2 °C 17 °C 1014.4 hPa SW 9.7 km/h 22.5 km/h 68% 0 mm
13:54 22.9 °C 17.4 °C 1014.4 hPa SW 8 km/h 22.5 km/h 71% 0 mm
13:59 23.2 °C 18.1 °C 1014.4 hPa SSW 3.2 km/h 17.7 km/h 73% 0 mm
14:04 23.4 °C 17.6 °C 1014.4 hPa SSW 6.4 km/h 17.7 km/h 70% 0 mm
14:09 23.7 °C 18.6 °C 1014.4 hPa SSW 6.4 km/h 17.7 km/h 73% 0 mm
14:14 24 °C 17.9 °C 1014.4 hPa SW 12.9 km/h 22.5 km/h 69% 0 mm
14:19 23.7 °C 17.7 °C 1014.1 hPa SW 9.7 km/h 22.5 km/h 69% 0 mm
14:24 23.6 °C 17.8 °C 1014.1 hPa SW 8 km/h 27.4 km/h 70% 0 mm
14:29 23.4 °C 17.7 °C 1014.1 hPa SW 9.7 km/h 27.4 km/h 70% 0 mm
14:34 23.4 °C 17.7 °C 1014.4 hPa SW 8 km/h 22.5 km/h 70% 0 mm
14:39 23.4 °C 17.4 °C 1014.4 hPa SW 8 km/h 22.5 km/h 69% 0 mm
14:44 23.1 °C 17.6 °C 1014.4 hPa SW 6.4 km/h 24.1 km/h 71% 0 mm
14:49 22.9 °C 17.6 °C 1014.4 hPa SW 3.2 km/h 24.1 km/h 72% 0 mm
14:54 22.8 °C 17.5 °C 1014.1 hPa SSW 9.7 km/h 17.7 km/h 72% 0 mm
14:59 23.1 °C 17.9 °C 1014.1 hPa SW 9.7 km/h 24.1 km/h 73% 0 mm
15:04 23.7 °C 18.4 °C 1014.1 hPa SSW 8 km/h 24.1 km/h 72% 0 mm
15:09 24.1 °C 18.3 °C 1014.1 hPa SSW 8 km/h 24.1 km/h 70% 0 mm
15:14 24.1 °C 17.8 °C 1013.8 hPa SW 9.7 km/h 25.7 km/h 68% 0 mm
15:19 24.1 °C 18.7 °C 1014.1 hPa SSW 1.6 km/h 25.7 km/h 72% 0 mm
15:24 24.1 °C 18.7 °C 1014.1 hPa SW 1.6 km/h 22.5 km/h 72% 0 mm
15:29 23.7 °C 17.9 °C 1014.1 hPa SSW 1.6 km/h 14.5 km/h 70% 0 mm
15:34 23.3 °C 17.8 °C 1014.1 hPa SSW 1.6 km/h 14.5 km/h 71% 0 mm
15:39 22.9 °C 17.6 °C 1014.1 hPa SSW 8 km/h 16.1 km/h 72% 0 mm
15:44 22.8 °C 17.9 °C 1014.1 hPa SSW 3.2 km/h 16.1 km/h 74% 0 mm
15:49 22.8 °C 17.9 °C 1013.8 hPa SSW 6.4 km/h 17.7 km/h 74% 0 mm
15:54 23.1 °C 18.2 °C 1013.8 hPa SW 4.8 km/h 17.7 km/h 74% 0 mm
15:59 23.5 °C 18.4 °C 1013.8 hPa SSW 6.4 km/h 16.1 km/h 73% 0 mm
16:04 23.5 °C 18.2 °C 1013.8 hPa SSW 6.4 km/h 16.1 km/h 72% 0 mm
16:09 23.3 °C 18 °C 1013.8 hPa SW 6.4 km/h 14.5 km/h 72% 0 mm
16:14 23.2 °C 18.1 °C 1013.8 hPa SSW 4.8 km/h 16.1 km/h 73% 0 mm
16:19 23.2 °C 18.1 °C 1013.8 hPa SSW 6.4 km/h 22.5 km/h 73% 0 mm
16:24 23.3 °C 18.2 °C 1013.8 hPa SSW 6.4 km/h 22.5 km/h 73% 0 mm
16:29 23.6 °C 18.4 °C 1013.8 hPa SSW 8 km/h 17.7 km/h 73% 0 mm
16:34 23.6 °C 18.5 °C 1013.8 hPa SSW 4.8 km/h 17.7 km/h 73% 0 mm
16:39 23.5 °C 18.4 °C 1013.8 hPa SW 3.2 km/h 17.7 km/h 73% 0 mm
16:44 23.3 °C 18.2 °C 1013.8 hPa SW 6.4 km/h 17.7 km/h 73% 0 mm
16:49 23.2 °C 18.1 °C 1013.8 hPa SW 8 km/h 17.7 km/h 73% 0 mm
16:54 23.3 °C 18.6 °C 1013.8 hPa SSW 8 km/h 16.1 km/h 75% 0 mm
16:59 23.7 °C 18.6 °C 1013.8 hPa South 6.4 km/h 16.1 km/h 73% 0 mm
17:04 24.1 °C 18.6 °C 1013.8 hPa SW 6.4 km/h 16.1 km/h 71% 0 mm
17:09 24 °C 18.4 °C 1013.8 hPa SW 4.8 km/h 20.9 km/h 71% 0 mm
17:14 23.9 °C 18.6 °C 1013.8 hPa SSW 9.7 km/h 20.9 km/h 72% 0 mm
17:19 23.8 °C 18.5 °C 1013.8 hPa SW 6.4 km/h 19.3 km/h 72% 0 mm
17:24 23.9 °C 18.6 °C 1013.8 hPa SW 6.4 km/h 20.9 km/h 72% 0 mm
17:29 24 °C 18.4 °C 1013.8 hPa SW 11.3 km/h 25.7 km/h 71% 0 mm
17:34 24 °C 18.4 °C 1013.8 hPa SW 9.7 km/h 25.7 km/h 71% 0 mm
17:39 24.3 °C 19.1 °C 1013.8 hPa SW 3.2 km/h 17.7 km/h 73% 0 mm
17:44 24.7 °C 19.3 °C 1013.8 hPa SW 1.6 km/h 12.9 km/h 72% 0 mm
17:49 25.2 °C 19.6 °C 1013.8 hPa SW 3.2 km/h 12.9 km/h 71% 0 mm
17:54 25.3 °C 19.2 °C 1013.8 hPa SSW 1.6 km/h 16.1 km/h 69% 0 mm
17:59 25.3 °C 19.4 °C 1013.8 hPa Calm   16.1 km/h 70% 0 mm
18:04 25.2 °C 19.1 °C 1013.4 hPa SSW 4.8 km/h 14.5 km/h 69% 0 mm
18:09 25.1 °C 19.2 °C 1013.4 hPa SSW 4.8 km/h 16.1 km/h 70% 0 mm
18:14 24.9 °C 18.9 °C 1013.4 hPa SSW 9.7 km/h 16.1 km/h 69% 0 mm
18:19 24.8 °C 18.9 °C 1013.4 hPa SSW 6.4 km/h 14.5 km/h 70% 0 mm
18:24 24.4 °C 18.6 °C 1013.4 hPa SSW 8 km/h 27.4 km/h 70% 0 mm
18:29 24.2 °C 18.8 °C 1013.4 hPa SW 1.6 km/h 27.4 km/h 72% 0 mm
18:34 24.2 °C 19.1 °C 1013.1 hPa SSW 3.2 km/h 16.1 km/h 73% 0 mm
18:39 24.2 °C 18.6 °C 1013.1 hPa SW 6.4 km/h 17.7 km/h 71% 0 mm
18:44 24.2 °C 18.8 °C 1013.1 hPa SSW 1.6 km/h 17.7 km/h 72% 0 mm
18:49 24.3 °C 18.9 °C 1013.1 hPa SW 3.2 km/h 16.1 km/h 72% 0 mm
18:54 24.2 °C 18.8 °C 1013.1 hPa SW 4.8 km/h 16.1 km/h 72% 0 mm
18:59 24.1 °C 18.8 °C 1013.1 hPa SSW 1.6 km/h 19.3 km/h 72% 0 mm
19:04 24.1 °C 18.9 °C 1013.4 hPa SSW 3.2 km/h 19.3 km/h 73% 0 mm
19:09 23.8 °C 18.7 °C 1013.4 hPa SSW 6.4 km/h 17.7 km/h 73% 0 mm
19:14 23.5 °C 18.6 °C 1013.4 hPa SW 8 km/h 17.7 km/h 74% 0 mm
19:19 23.4 °C 18.5 °C 1013.4 hPa SW 1.6 km/h 17.7 km/h 74% 0 mm
19:24 23.3 °C 18.4 °C 1013.8 hPa SW 8 km/h 17.7 km/h 74% 0 mm
19:39 22.8 °C 18.1 °C 1013.8 hPa SSW 8 km/h 19.3 km/h 75% 0 mm
19:44 22.6 °C 18.2 °C 1013.8 hPa SSW 6.4 km/h 16.1 km/h 76% 0 mm
19:49 22.5 °C 18.1 °C 1014.1 hPa SSW 3.2 km/h 16.1 km/h 76% 0 mm
19:54 22.4 °C 18.2 °C 1014.1 hPa SW 4.8 km/h 16.1 km/h 77% 0 mm
20:00 22.4 °C 18.2 °C 1014.1 hPa SW 6.4 km/h 12.9 km/h 77% 0 mm
20:05 22.4 °C 18.2 °C 1014.1 hPa SSW 6.4 km/h 12.9 km/h 77% 0 mm
20:10 22.4 °C 18.2 °C 1014.4 hPa SW 6.4 km/h 14.5 km/h 77% 0 mm
20:15 22.3 °C 18.1 °C 1014.4 hPa SSW 9.7 km/h 16.1 km/h 77% 0 mm
20:20 22.3 °C 18.1 °C 1014.4 hPa SSW 6.4 km/h 16.1 km/h 77% 0 mm
20:25 22.3 °C 18.1 °C 1014.4 hPa SW 8 km/h 14.5 km/h 77% 0 mm
20:30 22.3 °C 18.1 °C 1014.4 hPa SW 11.3 km/h 17.7 km/h 77% 0 mm
20:35 22.2 °C 18.2 °C 1014.4 hPa SW 11.3 km/h 17.7 km/h 78% 0 mm
20:40 22.2 °C 18.2 °C 1014.4 hPa SSW 6.4 km/h 17.7 km/h 78% 0 mm
20:45 22.1 °C 18.1 °C 1014.4 hPa SW 3.2 km/h 17.7 km/h 78% 0 mm
20:50 22 °C 18 °C 1014.4 hPa SSW 8 km/h 16.1 km/h 78% 0 mm
20:55 21.9 °C 17.9 °C 1014.4 hPa SW 4.8 km/h 16.1 km/h 78% 0 mm
21:00 21.9 °C 17.9 °C 1014.1 hPa SSW 4.8 km/h 14.5 km/h 78% 0 mm
21:05 21.9 °C 18.1 °C 1014.1 hPa SSW 4.8 km/h 11.3 km/h 79% 0 mm
21:10 21.8 °C 18.1 °C 1014.1 hPa SSW 3.2 km/h 11.3 km/h 79% 0 mm
21:15 21.8 °C 18.1 °C 1014.1 hPa SSW 1.6 km/h 14.5 km/h 79% 0 mm
21:20 21.8 °C 18 °C 1014.1 hPa SSW 4.8 km/h 16.1 km/h 79% 0 mm
21:25 21.7 °C 17.9 °C 1013.8 hPa SSW 3.2 km/h 16.1 km/h 79% 0 mm
21:30 21.6 °C 17.8 °C 1013.8 hPa Calm   14.5 km/h 79% 0 mm
21:35 21.5 °C 17.9 °C 1013.4 hPa SSW 3.2 km/h 11.3 km/h 80% 0 mm
21:40 21.4 °C 17.8 °C 1013.1 hPa SSW 4.8 km/h 11.3 km/h 80% 0 mm
21:45 21.3 °C 17.7 °C 1013.1 hPa SSW 1.6 km/h 11.3 km/h 80% 0 mm
21:50 21.3 °C 17.7 °C 1012.8 hPa South 3.2 km/h 12.9 km/h 80% 0 mm
21:55 21.2 °C 17.8 °C 1012.4 hPa SSW 3.2 km/h 14.5 km/h 81% 0 mm
22:00 21.2 °C 17.8 °C 1012.4 hPa SSW 3.2 km/h 14.5 km/h 81% 0 mm
22:05 21.2 °C 17.8 °C 1012.4 hPa SSW 6.4 km/h 12.9 km/h 81% 0 mm
22:10 21.2 °C 17.8 °C 1012.4 hPa SSW 3.2 km/h 12.9 km/h 81% 0 mm
22:15 21.1 °C 17.7 °C 1012.4 hPa Calm   11.3 km/h 81% 0 mm
22:20 21 °C 17.8 °C 1012.4 hPa SW 1.6 km/h 9.7 km/h 82% 0 mm
22:25 20.9 °C 17.7 °C 1012.4 hPa SW 1.6 km/h 9.7 km/h 82% 0 mm
22:30 20.8 °C 17.6 °C 1012.8 hPa Calm   8 km/h 82% 0 mm
22:40 20.7 °C 17.7 °C 1012.8 hPa SW 1.6 km/h 9.7 km/h 83% 0 mm
22:45 20.7 °C 17.7 °C 1013.1 hPa SW 1.6 km/h 8 km/h 83% 0 mm
22:50 20.6 °C 17.6 °C 1013.1 hPa SW 3.2 km/h 9.7 km/h 83% 0 mm
22:55 20.6 °C 17.8 °C 1013.1 hPa WSW 3.2 km/h 9.7 km/h 84% 0 mm
23:00 20.7 °C 17.9 °C 1013.4 hPa SSW 3.2 km/h 11.3 km/h 84% 0 mm
23:05 20.7 °C 17.9 °C 1013.4 hPa SW 1.6 km/h 11.3 km/h 84% 0 mm
23:10 20.8 °C 17.8 °C 1013.4 hPa SSW 4.8 km/h 11.3 km/h 83% 0 mm
23:15 21 °C 18 °C 1013.4 hPa SSW 4.8 km/h 11.3 km/h 83% 0 mm
23:20 21.2 °C 18.2 °C 1013.4 hPa SW 4.8 km/h 11.3 km/h 83% 0 mm
23:25 21.3 °C 18.1 °C 1013.4 hPa SSW 3.2 km/h 11.3 km/h 82% 0 mm
23:30 21.3 °C 18.1 °C 1013.4 hPa SSW 1.6 km/h 11.3 km/h 82% 0 mm
23:35 21.3 °C 18.1 °C 1013.1 hPa SSW 3.2 km/h 11.3 km/h 82% 0 mm
23:40 21.4 °C 18.2 °C 1013.1 hPa SSW 4.8 km/h 12.9 km/h 82% 0 mm
23:45 21.4 °C 18.2 °C 1013.1 hPa SSW 8 km/h 16.1 km/h 82% 0 mm
23:50 21.4 °C 18.2 °C 1013.1 hPa SW 8 km/h 17.7 km/h 82% 0 mm
23:55 21.5 °C 18.3 °C 1012.8 hPa SSW 9.7 km/h 20.9 km/h 82% 0 mm
Westford Weather
Compliments of Weather Underground

 
 
Current Radar Loop:

Copyright © WestfordWeather.net 2007-2014. All rights reserved.